Location: Blankensee
(53.5126°N, 14.3055°E)
Time: 19:00:30
(UTC+00:00)

Cosmos 1470 - Pass Details

Date: 08 August 2020
Orbit: 520 x 543 km, 82.5° (Epoch: 20 September)

Event Time Altitude Azimuth Distance (km) Brightness Sun altitude
Exits shadow 02:31:51 10° 217° (SW) 1,812 4.8 -8.0°
Reaches altitude 10° 02:31:53 10° 217° (SW) 1,802 4.8 -8.0°
Maximum altitude 02:35:38 40° 288° (WNW) 816 3.5 -7.6°
Drops below altitude 10° 02:39:26 10° 359° (N) 1,824 6.1 -7.1°
Sets 02:41:43 0° 7° (N) 2,723 7.1 -6.9°
